Location: *
(48.8489°N, 2.3218°E)
Time: 17:58:05
(UTC+00:00)

Cosmos 2181 Rocket - Pass Details

Date: 23 August 2019
Orbit: 953 x 1014 km, 82.9° (Epoch: 16 October)

Event Time Altitude Azimuth Distance (km) Brightness Sun altitude
Exits shadow 22:21:37 44° 89° (E) 1,305 4.4 -26.5°
Drops below altitude 10° 22:27:23 10° 20° (NNE) 2,706 6.9 -26.9°
Sets 22:30:00 0° 14° (NNE) 3,664 7.8 -27.1°
